W3JGB Weather Reports


time (UTC)temp
C
wind
direction
speed
KPH
gust
KPH
rain 1hr
cm
rain 24hr
cm
rain mn
cm
humidity
%
barometer
mb
20260506005124 16 1 0.0 0.0 0.00 0.00 0.00 86 1007.6
20260506004621 16 1 0.0 0.0 0.00 0.00 0.00 85 1007.6
20260506004118 16 5 0.0 0.0 0.00 0.00 0.00 84 1007.6
20260506003614 16 6 0.0 0.0 0.00 0.00 0.00 83 1007.4
20260506003110 17 5 0.0 0.0 0.00 0.00 0.00 81 1007.2
20260506002606 17 5 0.0 0.0 0.00 0.00 0.00 81 1007.5
20260506002102 17 6 0.0 0.0 0.00 0.00 0.00 81 1007.2
20260506001559 17 7 0.0 0.0 0.00 0.00 0.00 81 1007.2
20260506001056 18 3 0.0 0.0 0.00 0.00 0.00 81 1006.9
20260506000553 18 1 0.0 0.0 0.00 0.00 0.00 79 1007.1
20260506000051 18 1 0.0 0.0 0.00 0.00 0.00 79 1007.1
20260505235549 18 4 0.0 0.0 0.00 0.00 0.00 77 1007.1
20260505235045 18 1 0.0 0.0 0.00 0.00 0.00 75 1007.0
20260505234542 19 0 0.0 0.0 0.00 0.00 0.00 75 1006.9
20260505234039 19 359 0.0 0.0 0.00 0.00 0.00 75 1007.0
20260505233537 20 3 0.0 0.0 0.00 0.00 0.00 73 1006.9
20260505233034 20 1 0.0 0.0 0.00 0.00 0.00 73 1006.9
20260505232532 20 11 0.0 0.0 0.00 0.00 0.00 72 1006.8
20260505232029 20 0 0.0 0.0 0.00 0.00 0.00 71 1006.6
20260505231526 20 351 0.0 0.0 0.00 0.00 0.00 70 1006.7
20260505231025 20 357 1.6 1.6 0.00 0.00 0.00 70 1006.8
20260505230521 20 359 0.0 0.0 0.00 0.00 0.00 70 1006.7
20260505230018 20 359 1.6 3.2 0.00 0.00 0.00 67 1006.7
20260505225515 21 28 3.2 3.2 0.00 0.00 0.00 66 1006.7
20260505225011 21 5 1.6 1.6 0.00 0.00 0.00 66 1006.7
20260505224508 21 355 0.0 0.0 0.00 0.00 0.00 65 1006.4
20260505224005 21 356 0.0 0.0 0.00 0.00 0.00 62 1006.5
20260505223502 22 311 3.2 3.2 0.00 0.00 0.00 61 1006.7
20260505222958 22 81 3.2 3.2 0.00 0.00 0.00 58 1006.6
20260505222455 22 30 3.2 3.2 0.00 0.00 0.00 53 1006.5
20260505221950 22 7 0.0 0.0 0.00 0.00 0.00 54 1006.3
20260505221448 22 310 8.0 9.7 0.00 0.00 0.00 54 1006.7
20260505220945 22 35 1.6 3.2 0.00 0.00 0.00 55 1006.8
20260505220442 22 331 1.6 3.2 0.00 0.00 0.00 53 1006.6
20260505215939 22 20 0.0 0.0 0.00 0.00 0.00 52 1006.4
20260505215437 22 338 3.2 4.8 0.00 0.00 0.00 53 1006.4
20260505214935 22 357 1.6 1.6 0.00 0.00 0.00 54 1006.5
20260505214433 22 358 1.6 1.6 0.00 0.00 0.00 55 1006.5
20260505213929 22 290 3.2 4.8 0.00 0.00 0.00 55 1006.2
20260505213427 23 219 8.0 11.3 0.00 0.00 0.00 49 1006.6
20260505212923 25 325 3.2 3.2 0.00 0.00 0.00 42 1006.3
20260505212420 25 336 3.2 3.2 0.00 0.00 0.00 41 1006.1
20260505171759 27 47 3.2 3.2 0.00 0.00 0.00 42 1007.0
20260505171256 27 47 3.2 3.2 0.00 0.00 0.00 42 1007.0
20260505170752 26 330 0.0 0.0 0.00 0.00 0.00 43 1007.3
20260505170249 26 0 1.6 1.6 0.00 0.00 0.00 43 1006.7
20260505165744 26 260 3.2 3.2 0.00 0.00 0.00 43 1007.1
20260505165241 25 4 1.6 3.2 0.00 0.00 0.00 44 1007.2
20260505164736 25 219 4.8 4.8 0.00 0.00 0.00 44 1007.3
20260505164234 25 273 6.4 9.7 0.00 0.00 0.00 43 1007.3
20260505163732 25 343 3.2 3.2 0.00 0.00 0.00 45 1007.1
20260505163230 26 206 6.4 8.0 0.00 0.00 0.00 43 1007.4
20260505162727 26 187 8.0 11.3 0.00 0.00 0.00 43 1007.3
20260505162224 26 350 1.6 3.2 0.00 0.00 0.00 46 1007.5
20260505161721 26 305 4.8 4.8 0.00 0.00 0.00 46 1007.4
20260505161219 25 110 11.3 16.1 0.00 0.00 0.00 45 1007.7
20260505160716 25 72 4.8 4.8 0.00 0.00 0.00 46 1007.8
20260505160213 25 262 12.9 17.7 0.00 0.00 0.00 46 1007.8
20260505153152 25 137 8.0 12.9 0.00 0.00 0.00 48 1008.0
20260505152649 25 274 4.8 8.0 0.00 0.00 0.00 48 1008.0
20260505152145 25 281 3.2 3.2 0.00 0.00 0.00 49 1007.9
20260505151640 25 229 4.8 8.0 0.00 0.00 0.00 48 1008.0
20260505151138 25 229 3.2 4.8 0.00 0.00 0.00 50 1008.0
20260505150634 25 7 1.6 3.2 0.00 0.00 0.00 51 1008.2
20260505150131 25 239 4.8 8.0 0.00 0.00 0.00 49 1008.2
20260505140600 22 36 3.2 3.2 0.00 0.00 0.00 51 1008.2
20260505125013 20 30 1.6 3.2 0.00 0.00 0.00 66 1008.8
20260505124510 20 13 0.0 0.0 0.00 0.00 0.00 69 1008.7
20260505124006 19 10 0.0 0.0 0.00 0.00 0.00 73 1008.8
20260505123503 18 5 3.2 3.2 0.00 0.00 0.00 74 1008.7
20260505122959 16 8 0.0 0.0 0.00 0.00 0.00 85 1008.7
20260505122456 15 8 0.0 0.0 0.00 0.00 0.00 88 1008.9
20260505121953 15 6 0.0 0.0 0.00 0.00 0.00 90 1008.9
20260505121449 15 23 0.0 0.0 0.00 0.00 0.00 88 1009.0
20260505120945 15 0 0.0 0.0 0.00 0.00 0.00 86 1008.7
20260505120442 15 9 0.0 0.0 0.00 0.00 0.00 83 1009.0
20260505115941 14 357 0.0 1.6 0.00 0.00 0.00 89 1008.9
20260505115438 13 24 1.6 1.6 0.00 0.00 0.00 90 1008.8
20260505114936 13 16 0.0 0.0 0.00 0.00 0.00 93 1008.9
20260505114432 13 344 0.0 0.0 0.00 0.00 0.00 94 1008.6
20260505113928 12 5 0.0 0.0 0.00 0.00 0.00 94 1008.9
20260505113425 12 7 0.0 0.0 0.00 0.00 0.00 95 1008.7
20260505112921 11 6 0.0 0.0 0.00 0.00 0.00 95 1008.7
20260505112419 11 3 0.0 0.0 0.00 0.00 0.00 95 1008.9
20260505111915 11 0 0.0 0.0 0.00 0.00 0.00 97 1008.8
20260505111409 10 351 0.0 0.0 0.00 0.00 0.00 97 1008.2
20260505110906 10 1 1.6 1.6 0.00 0.00 0.00 98 1008.6
20260505110403 10 7 0.0 0.0 0.00 0.00 0.00 98 1008.4
20260505101833 8 357 1.6 1.6 0.00 0.00 0.00 99 1008.4
20260505101328 8 8 0.0 0.0 0.00 0.00 0.00 99 1008.2
20260505100824 8 5 0.0 0.0 0.00 0.00 0.00 99 1008.5
20260505100321 8 4 0.0 0.0 0.00 0.00 0.00 99 1008.4
20260505095817 8 9 1.6 1.6 0.00 0.00 0.00 99 1008.2
20260505095315 8 354 0.0 0.0 0.00 0.00 0.00 98 1008.4
20260505094810 8 354 0.0 0.0 0.00 0.00 0.00 99 1008.1
20260505094308 8 6 0.0 0.0 0.00 0.00 0.00 99 1008.0
20260505093803 8 9 0.0 0.0 0.00 0.00 0.00 99 1008.4
20260505093301 8 1 0.0 1.6 0.00 0.00 0.00 99 1007.8
20260505092757 8 353 3.2 3.2 0.00 0.00 0.00 99 1007.6
20260505092256 8 8 0.0 1.6 0.00 0.00 0.00 99 1007.5
20260505091753 8 6 0.0 0.0 0.00 0.00 0.00 98 1007.6
20260505091251 8 10 0.0 0.0 0.00 0.00 0.00 98 1007.8
20260505090749 8 7 0.0 0.0 0.00 0.00 0.00 98 1007.6
20260505090247 8 6 0.0 0.0 0.00 0.00 0.00 98 1007.6
20260505085744 8 9 0.0 0.0 0.00 0.00 0.00 98 1007.6
20260505085242 8 7 0.0 0.0 0.00 0.00 0.00 98 1007.6
20260505084739 8 5 0.0 0.0 0.00 0.00 0.00 98 1007.6
20260505084238 8 9 0.0 0.0 0.00 0.00 0.00 99 1007.5
20260505083734 8 10 3.2 3.2 0.00 0.00 0.00 98 1007.6
20260505083231 8 9 0.0 0.0 0.00 0.00 0.00 98 1007.9
20260505082727 8 10 0.0 0.0 0.00 0.00 0.00 98 1007.9
20260505082225 8 6 0.0 0.0 0.00 0.00 0.00 98 1007.7
20260505081720 8 7 0.0 0.0 0.00 0.00 0.00 98 1007.8
20260505081218 8 1 0.0 0.0 0.00 0.00 0.00 98 1007.5
20260505080715 8 5 0.0 0.0 0.00 0.00 0.00 98 1007.6
20260505080210 8 4 0.0 0.0 0.00 0.00 0.00 98 1007.7
20260505075706 8 5 0.0 0.0 0.00 0.00 0.00 97 1007.6
20260505075203 8 9 0.0 0.0 0.00 0.00 0.00 97 1007.6
20260505074700 8 5 0.0 0.0 0.00 0.00 0.00 97 1007.4
20260505074157 9 7 0.0 0.0 0.00 0.00 0.00 97 1007.2
20260505073655 9 352 0.0 0.0 0.00 0.00 0.00 97 1007.3
20260505073153 9 9 0.0 0.0 0.00 0.00 0.00 97 1007.5
20260505072648 8 5 0.0 0.0 0.00 0.00 0.00 97 1007.4
20260505072145 9 6 0.0 0.0 0.00 0.00 0.00 96 1007.3
20260505071641 9 10 0.0 0.0 0.00 0.00 0.00 96 1007.5
20260505071139 9 6 0.0 0.0 0.00 0.00 0.00 96 1007.2
20260505070636 9 5 0.0 0.0 0.00 0.00 0.00 96 1007.5
20260505070132 9 6 0.0 0.0 0.00 0.00 0.00 95 1007.3
20260505065628 9 358 0.0 0.0 0.00 0.00 0.00 95 1007.3
20260505065125 10 9 0.0 0.0 0.00 0.00 0.00 94 1007.4
20260505064621 10 6 0.0 0.0 0.00 0.00 0.00 95 1007.4
20260505064120 10 9 0.0 0.0 0.00 0.00 0.00 95 1007.5
20260505063617 10 6 0.0 0.0 0.00 0.00 0.00 95 1007.4
20260505063113 10 8 0.0 0.0 0.00 0.00 0.00 94 1007.5
20260505062609 10 8 0.0 0.0 0.00 0.00 0.00 94 1007.4
20260505062107 10 7 0.0 0.0 0.00 0.00 0.00 93 1007.4
20260505061604 10 8 0.0 0.0 0.00 0.00 0.00 93 1007.5
20260505061102 10 6 0.0 0.0 0.00 0.00 0.00 93 1007.5
20260505060559 10 8 0.0 0.0 0.00 0.00 0.00 93 1007.6
20260505060056 10 9 0.0 0.0 0.00 0.00 0.00 93 1007.6
20260505055551 10 7 0.0 0.0 0.00 0.00 0.00 92 1007.8
20260505055048 10 6 0.0 0.0 0.00 0.00 0.00 92 1007.9
20260505054545 10 14 0.0 0.0 0.00 0.00 0.00 92 1007.8
20260505054043 10 9 0.0 0.0 0.00 0.00 0.00 92 1007.5
20260505053540 10 9 0.0 0.0 0.00 0.00 0.00 92 1007.7
20260505053037 10 9 0.0 0.0 0.00 0.00 0.00 91 1007.7
20260505052534 10 8 0.0 0.0 0.00 0.00 0.00 91 1008.0
20260505052031 10 8 0.0 0.0 0.00 0.00 0.00 92 1007.8
20260505051528 10 8 0.0 0.0 0.00 0.00 0.00 92 1008.0
20260505051026 10 10 0.0 0.0 0.00 0.00 0.00 93 1008.0
20260505050524 10 8 0.0 0.0 0.00 0.00 0.00 92 1007.9
20260505041452 10 1 0.0 0.0 0.00 0.00 0.00 90 1007.8
20260505040949 10 4 0.0 0.0 0.00 0.00 0.00 89 1007.8
20260505040446 11 4 0.0 0.0 0.00 0.00 0.00 88 1007.5
20260505035943 11 4 0.0 0.0 0.00 0.00 0.00 88 1007.7
20260505035439 11 3 0.0 0.0 0.00 0.00 0.00 88 1007.6
20260505034936 11 7 0.0 0.0 0.00 0.00 0.00 87 1007.4
20260505034433 11 0 0.0 0.0 0.00 0.00 0.00 88 1007.6
20260505033930 11 4 0.0 0.0 0.00 0.00 0.00 88 1007.7
20260505033426 11 4 0.0 0.0 0.00 0.00 0.00 87 1007.4
20260505032925 11 2 0.0 0.0 0.00 0.00 0.00 87 1007.4
20260505032422 11 9 0.0 0.0 0.00 0.00 0.00 86 1007.4
20260505031918 11 4 0.0 0.0 0.00 0.00 0.00 86 1007.6
20260505031415 11 4 0.0 0.0 0.00 0.00 0.00 85 1007.4
20260505030912 11 4 0.0 0.0 0.00 0.00 0.00 85 1007.5
20260505030408 12 357 0.0 0.0 0.00 0.00 0.00 85 1007.3
20260505025903 12 4 0.0 0.0 0.00 0.00 0.00 84 1007.4
20260505025401 12 359 0.0 0.0 0.00 0.00 0.00 83 1007.4
20260505024900 12 6 0.0 0.0 0.00 0.00 0.00 82 1007.3
20260505024357 12 2 0.0 0.0 0.00 0.00 0.00 82 1007.3
20260505023854 12 0 0.0 0.0 0.00 0.00 0.00 81 1007.3
20260505023351 13 6 0.0 0.0 0.00 0.00 0.00 80 1007.5
20260505022848 13 358 0.0 0.0 0.00 0.00 0.00 81 1007.5
20260505022345 13 7 0.0 0.0 0.00 0.00 0.00 79 1007.5
20260505021842 13 7 0.0 0.0 0.00 0.00 0.00 79 1007.5
20260505021338 13 8 0.0 0.0 0.00 0.00 0.00 79 1007.5
20260505020834 13 2 0.0 0.0 0.00 0.00 0.00 80 1007.5
20260505020330 13 7 0.0 0.0 0.00 0.00 0.00 78 1007.6
20260505015827 13 7 0.0 0.0 0.00 0.00 0.00 76 1007.5
20260505015324 13 4 0.0 0.0 0.00 0.00 0.00 77 1007.6
20260505014822 14 5 0.0 0.0 0.00 0.00 0.00 76 1007.3
20260505014318 14 4 0.0 0.0 0.00 0.00 0.00 73 1007.7
20260505013815 15 4 0.0 0.0 0.00 0.00 0.00 72 1007.6
20260505013312 15 359 0.0 0.0 0.00 0.00 0.00 72 1007.5
20260505012811 15 352 0.0 0.0 0.00 0.00 0.00 71 1007.4
20260505012308 15 3 0.0 0.0 0.00 0.00 0.00 69 1007.4
20260505011804 15 3 0.0 0.0 0.00 0.00 0.00 66 1007.4
20260505011301 15 2 0.0 0.0 0.00 0.00 0.00 69 1007.5
20260505010757 16 1 0.0 0.0 0.00 0.00 0.00 66 1007.3
20260505010253 16 5 0.0 0.0 0.00 0.00 0.00 65 1007.3
20260505005749 17 4 0.0 0.0 0.00 0.00 0.00 65 1007.2